sat.trackr.live / text

‹ back to catalog

FLOCK 4G-31

NORAD 62652 · 2025-009AV

PAYLOAD ACTIVE UNKNOWN

§ Identity

Operator
Country
US
Launch date
2025-01-14
Launch site
AFWTR
Launch vehicle
Mass (kg)
RCS (m²)

Purposes: earth_obs

External: N2YO · Heavens-Above · Gunter

§ Orbital elements

Epoch: 2026-05-25T04:16:52.891680Z

Period
94.21 min
Inclination
97.3966°
Eccentricity
0.0002721
Mean motion
15.28558387 rev/d
Perigee alt
478.3 km
Apogee alt
482.0 km
Semi-major
6,858.3 km
B*
3.7504e-4
RAAN
226.8917°
Arg perigee
75.9699°
Mean anomaly
284.1843°
Rev number
7,539

§ Raw data

FLOCK 4G-311 62652U 25009AV  26145.17838995  .00010351  00000+0  37504-3 0  99962 62652  97.3966 226.8917 0002721  75.9699 284.1843 15.28558387 75391

JSON: /api/v1/satellites/62652 · /tle

For live sub-satellite position, see the globe view (requires WebGL).

§ Visibility from observer

Set your observer location to see the next 7 days of passes ≥ 10°. The values pass through the URL so the page stays shareable.

No JS? Fill the form by hand. The geolocation button needs JavaScript.